[[{"header":{"parameterUnit":"m.s-1","parameterCategory":1,"la1":30.2991,"la2":30.254,"lo1":-89.0895,"lo2":-89.0444,"dy":0.0017,"dx":0.0017,"nx":28,"ny":28,"refTime":"2024-02-10T09:00:00:Z","depth":0,"parameterNumber":2,"parameterNumberName":"U-component_of_WINDS"},"data":[0,0,0,0,0,0,0,0,0,0,0,0,0,0,0,0,0,0,0,0,0,0,0,0,0,0,0,0,0,0,0,0,0,0,0,0,0,0,0,0,0,0,0,0,0,0,0,0,0,0,0,0,0,0,0,0,0,0,-2.7891,-2.7892,0,-2.7945,-2.7946,-2.7947,-2.7916,-2.7914,-2.7913,-2.7911,-2.7964,-2.7967,-2.797,0,0,0,0,0,0,0,0,0,0,0,0,0,-2.7758,-2.776,-2.7891,-2.7892,-2.7892,-2.7945,-2.7946,-2.7947,-2.7916,-2.7914,-2.7912,-2.7911,-2.7963,-2.7967,-2.797,0,0,0,0,0,0,0,0,0,0,0,0,0,-2.7814,-2.7761,-2.7891,-2.7883,-2.7883,-2.7945,-2.7946,-2.7947,-2.7916,-2.7914,-2.7912,-2.791,-2.7962,-2.7966,-2.797,-2.8042,0,0,-2.7983,-2.7985,0,0,0,0,0,0,0,0,-2.7811,-2.7819,-2.7884,-2.7884,-2.7884,-2.7922,-2.7918,-2.7979,-2.7917,-2.7904,-2.7911,-2.7909,-2.7952,-2.7957,-2.7972,-2.8044,-2.8047,-2.7984,-2.7986,-2.7988,-2.7989,0,0,0,0,0,0,0,-2.7807,-2.7816,-2.7912,-2.7885,-2.7885,-2.7876,-2.7882,-2.793,-2.794,-2.7905,-2.7903,-2.791,-2.7951,-2.7968,-2.7973,-2.8047,-2.7984,-2.7987,-2.799,-2.7992,-2.8179,-2.8181,0,0,0,0,0,0,-2.7804,-2.7813,-2.7911,-2.7914,-2.7841,-2.7881,-2.7887,-2.7912,-2.7939,-2.7941,-2.7912,-2.7908,-2.7962,-2.7968,-2.7974,-2.8058,-2.7988,-2.7992,-2.7994,-2.8177,-2.818,-2.8182,0,0,0,0,0,0,-2.7801,-2.7813,-2.7908,-2.7863,-2.7875,-2.7885,-2.7914,-2.7914,-2.793,-2.7944,-2.7946,-2.7927,-2.796,-2.7968,-2.8025,-2.8059,-2.7994,-2.7998,-2.8174,-2.8177,-2.8181,-2.8227,0,0,0,0,0,0,-2.7798,-2.7812,-2.784,-2.7864,-2.7877,-2.7959,-2.7916,-2.7917,-2.7938,-2.7934,-2.7959,-2.7961,-2.7959,-2.8019,-2.8029,-2.8064,-2.8001,-2.8171,-2.8175,-2.818,-2.8222,-2.8231,-2.8239,0,0,0,0,0,-2.7793,-2.7851,-2.7842,-2.7854,-2.7913,-2.7961,-2.7969,-2.7966,-2.7941,-2.7968,-2.7977,-2.796,-2.8055,-2.8025,-2.8036,-2.8073,-2.8168,-2.8174,-2.8179,-2.8218,-2.823,-2.8239,0,0,0,0,0,0,-2.783,-2.7854,-2.7844,-2.7911,-2.7935,-2.7956,-2.7991,-2.7979,-2.8009,-2.8004,-2.7999,-2.8005,-2.8063,-2.8074,-2.8041,-2.8142,-2.8107,-2.8115,-2.8133,-2.8144,-2.8152,-2.8147,-2.8005,0,0,0,0,0,-2.7846,-2.7884,-2.7903,-2.7961,-2.7973,-2.798,-2.8001,-2.7997,-2.8021,-2.803,-2.8043,-2.8066,-2.81,-2.8123,-2.8156,-2.8224,-2.8228,-2.8255,-2.8264,-2.8271,-2.8277,-2.8312,-2.8323,-2.82,-2.82,-2.82,0,0,-2.7879,-2.7897,-2.7921,-2.7968,-2.7986,-2.8024,-2.7988,-2.8031,-2.8059,-2.8036,-2.809,-2.81,-2.8125,-2.8188,-2.8216,-2.8198,-2.8312,-2.8278,-2.8283,-2.8286,-2.8319,-2.833,-2.8341,-2.8204,-2.8203,-2.8203,0,0,-2.7959,-2.7977,-2.8026,-2.8045,-2.8072,-2.8076,-2.8088,-2.8112,-2.8118,-2.8172,-2.8155,-2.8188,-2.8249,-2.8266,-2.8283,-2.837,-2.8354,-2.8381,-2.8425,-2.8459,-2.8469,-2.8478,-2.8506,-2.8517,-2.8388,-2.8388,-2.8388,0,-2.7996,-2.8055,-2.8053,-2.8097,-2.8117,-2.8099,-2.8148,-2.8166,-2.8202,-2.8216,-2.8197,-2.8271,-2.8287,-2.8352,-2.8373,-2.8388,-2.84,-2.8377,-2.8468,-2.8477,-2.8485,-2.8512,-2.8523,-2.8391,-2.839,-2.839,-2.839,0,-2.8099,-2.8139,-2.8176,-2.8212,-2.8236,-2.8283,-2.8286,-2.8312,-2.8306,-2.8312,-2.8366,-2.8385,-2.842,-2.8436,-2.843,-2.85,-2.8488,-2.8469,-2.8433,-2.8499,-2.8524,-2.8535,-2.8395,-2.8394,-2.8393,-2.8392,0,0,-2.8202,-2.8236,-2.8249,-2.8265,-2.8294,-2.8324,-2.8369,-2.8405,-2.8425,-2.8451,-2.8487,-2.8539,-2.8521,-2.854,-2.8537,-2.8567,-2.8632,-2.8544,-2.8544,-2.8557,-2.8707,-2.8719,-2.8732,-2.8623,-2.8625,-2.8626,-2.8704,0,-2.8282,-2.8361,-2.836,-2.8433,-2.8469,-2.8453,-2.8492,-2.8513,-2.852,-2.8551,-2.8558,-2.8594,-2.8569,-2.858,-2.861,-2.8618,-2.8661,-2.8612,-2.8654,-2.8655,-2.8646,-2.8745,-2.8759,-2.8832,-2.8714,-2.8716,-2.8717,0,-2.8385,-2.8415,-2.8491,-2.8513,-2.8529,-2.8564,-2.8595,-2.8626,-2.8649,-2.8652,-2.8674,-2.8665,-2.8709,-2.8674,-2.8734,-2.87,-2.8718,-2.8724,-2.8727,-2.8729,-2.8689,-2.8748,-2.8855,-2.8865,-2.8733,-2.8732,-2.8731,0,-2.845,-2.8509,-2.8562,-2.8576,-2.8604,-2.8628,-2.8641,-2.8662,-2.8683,-2.8711,-2.8724,-2.8756,-2.8773,-2.8798,-2.8798,-2.8773,-2.8857,-2.8823,-2.8859,-2.8859,-2.8876,-2.8874,-2.8985,-2.8891,-2.8891,-2.8891,-2.8891,0,-2.8538,-2.8584,-2.8591,-2.8623,-2.8674,-2.8673,-2.8724,-2.8734,-2.8753,-2.8786,-2.8774,-2.8805,-2.8805,-2.8836,-2.8836,-2.8884,-2.8893,-2.8895,-2.8894,-2.8894,-2.8894,-2.8904,-2.8898,-2.8894,-2.8893,-2.8892,-2.8892,0,-2.8618,-2.8624,-2.868,-2.8703,-2.8709,-2.8746,-2.8764,-2.8794,-2.88,-2.8842,-2.8851,-2.8861,-2.8897,-2.89,-2.8942,-2.8942,-2.8999,-2.8994,-2.8991,-2.8989,-2.9025,-2.902,-2.9144,-2.9159,-2.9058,-2.9059,-2.9059,0,-2.8672,-2.8708,-2.8734,-2.8755,-2.877,-2.8805,-2.8826,-2.8826,-2.8849,-2.8877,-2.8903,-2.8939,-2.8966,-2.9024,-2.9034,-2.9065,-2.9059,-2.91,-2.9063,-2.9062,-2.9057,-2.9053,-2.9056,-2.9106,-2.9107,-2.9108,-2.9109,0,-2.8767,-2.8769,-2.88,-2.8833,-2.8859,-2.8885,-2.8909,-2.8927,-2.893,-2.8955,-2.8992,-2.9014,-2.9056,-2.909,-2.9121,-2.9133,-2.9121,-2.9121,-2.9131,-2.913,-2.9126,-2.9126,-2.9008,-2.9118,-2.9117,-2.9116,-2.9116,-2.9115,-2.8835,-2.8865,-2.8888,-2.8923,-2.8941,-2.8964,-2.8992,-2.9002,-2.9033,-2.9068,-2.9067,-2.9107,-2.9128,-2.9168,-2.9182,-2.9213,-2.9199,-2.9213,-2.9216,-2.9219,-2.9222,-2.9124,-2.9219,-2.9218,-2.9218,-2.9218,-2.9218,0,-2.8927,-2.8941,-2.8974,-2.9007,-2.9035,-2.9023,-2.9049,-2.9072,-2.9108,-2.9129,-2.9157,-2.9198,-2.9231,-2.9244,-2.9276,-2.9297,-2.9293,-2.9305,-2.9302,-2.9305,-2.9234,-2.9221,-2.9309,-2.9309,-2.9309,-2.9309,-2.9309,-2.9309,-2.8978,-2.9028,-2.9032,-2.909,-2.9104,-2.9143,-2.9159,-2.9179,-2.9196,-2.9243,-2.927,-2.9279,-2.9296,-2.9329,-2.9358,-2.9361,-2.9372,-2.9387,-2.9387,-2.9319,-2.931,-2.9301,-2.9289,-2.939,-2.939,-2.9455,-2.9455,-2.9456]},{"header":{"parameterUnit":"m.s-1","parameterCategory":1,"la1":30.2991,"la2":30.254,"lo1":-89.0895,"lo2":-89.0444,"dy":0.0017,"dx":0.0017,"nx":28,"ny":28,"refTime":"2024-02-10T09:00:00:Z","depth":0,"parameterNumber":3,"parameterNumberName":"V-component_of_WINDS"},"data":[0,0,0,0,0,0,0,0,0,0,0,0,0,0,0,0,0,0,0,0,0,0,0,0,0,0,0,0,0,0,0,0,0,0,0,0,0,0,0,0,0,0,0,0,0,0,0,0,0,0,0,0,0,0,0,0,0,0,2.2107,2.2109,0,2.2241,2.2242,2.2244,2.2272,2.2271,2.227,2.2269,2.2407,2.2412,2.2416,0,0,0,0,0,0,0,0,0,0,0,0,0,2.1881,2.1885,2.2107,2.2109,2.2111,2.224,2.2242,2.2244,2.2272,2.2271,2.227,2.2269,2.2406,2.2411,2.2416,0,0,0,0,0,0,0,0,0,0,0,0,0,2.1993,2.1886,2.2107,2.214,2.2145,2.224,2.2242,2.2245,2.2272,2.2271,2.2269,2.2268,2.2404,2.241,2.2417,2.2489,0,0,2.2438,2.2441,0,0,0,0,0,0,0,0,2.1987,2.2002,2.2134,2.2138,2.2143,2.2238,2.2213,2.2327,2.2273,2.2224,2.2269,2.2267,2.2352,2.2363,2.2392,2.2496,2.2502,2.2439,2.2443,2.2446,2.2448,0,0,0,0,0,0,0,2.1979,2.1996,2.216,2.2136,2.2141,2.215,2.2164,2.2235,2.2295,2.2228,2.223,2.2246,2.2354,2.2385,2.2395,2.2504,2.2439,2.2445,2.2449,2.2452,2.2678,2.268,0,0,0,0,0,0,2.1965,2.1989,2.2156,2.2164,2.206,2.2155,2.2171,2.2209,2.2294,2.2306,2.2247,2.2247,2.2374,2.2387,2.24,2.2493,2.2446,2.2452,2.2456,2.2676,2.2678,2.268,0,0,0,0,0,0,2.196,2.198,2.2151,2.2078,2.21,2.2161,2.2203,2.2213,2.2243,2.2308,2.2319,2.2267,2.2373,2.239,2.2468,2.2498,2.2456,2.2462,2.2674,2.2677,2.2679,2.2677,0,0,0,0,0,0,2.1953,2.1978,2.2005,2.2078,2.2104,2.2215,2.2205,2.2216,2.2255,2.2255,2.233,2.2341,2.2373,2.2457,2.2475,2.2507,2.2467,2.2671,2.2675,2.2678,2.2675,2.268,2.2684,0,0,0,0,0,2.1945,2.1998,2.2006,2.2026,2.2139,2.2217,2.2232,2.2268,2.2257,2.2286,2.2328,2.2338,2.2491,2.2465,2.2485,2.2519,2.267,2.2674,2.2678,2.2673,2.2679,2.2684,0,0,0,0,0,0,2.1928,2.2009,2.2018,2.2096,2.2149,2.2221,2.2259,2.2272,2.233,2.2328,2.2371,2.2388,2.2463,2.2499,2.2468,2.2595,2.258,2.2589,2.257,2.2576,2.258,2.2571,2.2473,0,0,0,0,0,2.1933,2.1988,2.2056,2.2119,2.2145,2.2197,2.2233,2.2256,2.2313,2.2336,2.2384,2.2439,2.25,2.254,2.2599,2.268,2.2698,2.2713,2.2718,2.2721,2.2728,2.2777,2.2785,2.2694,2.2694,2.2694,0,0,2.1944,2.1995,2.2028,2.2117,2.2161,2.2219,2.2216,2.2277,2.2322,2.2345,2.2422,2.2459,2.2524,2.2605,2.2642,2.2637,2.2758,2.2726,2.2728,2.2734,2.2782,2.2791,2.2798,2.2697,2.2697,2.2696,0,0,2.1995,2.2038,2.2097,2.2141,2.2208,2.2242,2.2256,2.2327,2.2353,2.243,2.245,2.2504,2.2607,2.2654,2.2691,2.2762,2.2774,2.278,2.2803,2.285,2.2857,2.2864,2.2892,2.2901,2.2786,2.2786,2.2786,0,2.2001,2.2089,2.2125,2.2186,2.2226,2.225,2.2311,2.2352,2.2435,2.2463,2.2455,2.2587,2.2632,2.2725,2.2743,2.2771,2.279,2.2772,2.2853,2.286,2.2867,2.2894,2.2904,2.2787,2.2787,2.2787,2.2787,0,2.2095,2.2156,2.2195,2.2275,2.2319,2.2379,2.2426,2.2467,2.2486,2.2522,2.2602,2.2657,2.273,2.2753,2.2772,2.285,2.2845,2.2844,2.283,2.2875,2.2902,2.2912,2.2787,2.2787,2.2787,2.2787,0,0,2.2139,2.2239,2.2253,2.2291,2.2367,2.2415,2.2478,2.2549,2.2584,2.264,2.2696,2.2783,2.2784,2.2826,2.2851,2.2892,2.2948,2.2887,2.2889,2.2899,2.304,2.3042,2.3053,2.2956,2.2958,2.296,2.3036,0,2.2202,2.2314,2.2349,2.2443,2.2501,2.2525,2.258,2.2634,2.2669,2.2725,2.2764,2.2827,2.2821,2.2848,2.2889,2.2932,2.2978,2.2927,2.301,2.3013,2.2996,2.3067,2.3068,2.3137,2.3046,2.3048,2.3049,0,2.229,2.2348,2.2448,2.252,2.2545,2.2594,2.2663,2.2715,2.2777,2.28,2.2848,2.287,2.2938,2.2919,2.3015,2.298,2.3016,2.3043,2.3046,2.3058,2.3035,2.3082,2.3159,2.3171,2.3065,2.3064,2.3063,0,2.2316,2.242,2.2494,2.2525,2.2609,2.2643,2.2679,2.274,2.2781,2.2841,2.2869,2.2936,2.2974,2.3026,2.3067,2.3049,2.316,2.3144,2.3183,2.3183,2.3208,2.3206,2.3294,2.3226,2.3226,2.3226,2.3226,0,2.2384,2.2445,2.2507,2.2553,2.2623,2.2663,2.2731,2.2769,2.2823,2.2878,2.2902,2.2954,2.3003,2.3061,2.3093,2.3169,2.3185,2.3207,2.3216,2.3207,2.3204,2.3233,2.323,2.3229,2.3228,2.3228,2.3227,0,2.2425,2.2469,2.2552,2.2625,2.2644,2.2693,2.2756,2.2803,2.2839,2.2908,2.2927,2.2985,2.3055,2.31,2.3189,2.321,2.3295,2.33,2.3274,2.3279,2.3317,2.3314,2.3429,2.3447,2.3364,2.3365,2.3365,0,2.2467,2.2515,2.2593,2.2631,2.2668,2.2729,2.2772,2.2814,2.2857,2.2932,2.297,2.3042,2.3102,2.3213,2.3263,2.3332,2.3341,2.3377,2.3352,2.3342,2.3345,2.3343,2.3349,2.3381,2.3382,2.3383,2.3383,0,2.2537,2.2557,2.2617,2.2685,2.2735,2.279,2.2846,2.2876,2.2928,2.2976,2.3048,2.3094,2.3186,2.3258,2.3331,2.337,2.3387,2.339,2.3404,2.3396,2.3381,2.3393,2.3288,2.3388,2.3388,2.3387,2.3387,2.3387,2.2583,2.2627,2.269,2.2756,2.2803,2.2854,2.2902,2.2945,2.3006,2.3084,2.3104,2.318,2.3243,2.3344,2.3385,2.3446,2.3442,2.346,2.3465,2.347,2.3472,2.3369,2.3459,2.3459,2.3459,2.3459,2.3459,0,2.2657,2.2699,2.2759,2.2837,2.289,2.2899,2.2961,2.3006,2.3072,2.3129,2.3187,2.3271,2.3342,2.3398,2.347,2.3509,2.3518,2.3527,2.3526,2.3535,2.347,2.3453,2.3518,2.3518,2.3518,2.3518,2.3518,2.3518,2.2702,2.2779,2.2806,2.2907,2.2949,2.3023,2.3059,2.3107,2.3153,2.3246,2.3304,2.334,2.3398,2.3475,2.3541,2.3555,2.3582,2.359,2.3607,2.3546,2.3539,2.3533,2.3517,2.3595,2.3595,2.3667,2.3667,2.3668]}]]